• In Spain
  • List of Countries
  • For 7 days
  • Water Temperature
  • Satellite Maps
  • Weather Map
  • Weather Widgets
  • user-avatar
    Login

    Hourly Weather Sucre

    Today, 19 September, Wednesday

    Time Temperature Precipitation Wind Pressure Humidity
    00:00 +15°C° 0 mm 2 mps 539 mmHg 49%
    01:00 +14°C° 0 mm 2 mps 539 mmHg 50%
    02:00 +14°C° 0 mm 1 mps 538 mmHg 51%
    03:00 +13°C° 0 mm 2 mps 538 mmHg 48%
    04:00 +13°C° 0 mm 2 mps 538 mmHg 44%
    05:00 +12°C° 0 mm 2 mps 538 mmHg 40%
    06:00 +14°C° 0 mm 2 mps 539 mmHg 33%
    07:00 +15°C° 0 mm 2 mps 540 mmHg 25%
    08:00 +17°C° 0 mm 2 mps 541 mmHg 18%
    09:00 +19°C° 0 mm 3 mps 542 mmHg 13%
    10:00 +21°C° 0 mm 3 mps 543 mmHg 8%
    11:00 +25°C° 0 mm 4 mps 544 mmHg 4%
    12:00 +25°C° 0 mm 3 mps 544 mmHg 3%
    13:00 +26°C° 0 mm 2 mps 544 mmHg 3%
    14:00 +27°C° 0 mm 2 mps 543 mmHg 3%
    15:00 +26°C° 0 mm 4 mps 543 mmHg 5%
    16:00 +26°C° 0 mm 6 mps 543 mmHg 8%
    17:00 +24°C° 0 mm 8 mps 542 mmHg 11%
    18:00 +22°C° 1.2 mm 6 mps 542 mmHg 25%
    19:00 +19°C° 1.2 mm 5 mps 542 mmHg 40%
    20:00 +17°C° 1.2 mm 4 mps 541 mmHg 54%
    21:00 +16°C° 0.2 mm 3 mps 541 mmHg 59%
    22:00 +16°C° 0.2 mm 2 mps 541 mmHg 63%
    23:00 +15°C° 0.2 mm 2 mps 542 mmHg 67%

    Tomorrow, 20 September, Thursday

    Time Temperature Precipitation Wind Pressure Humidity
    00:00 +15°C° 0 mm 1 mps 541 mmHg 70%
    01:00 +14°C° 0 mm 1 mps 541 mmHg 73%
    02:00 +14°C° 0 mm 1 mps 540 mmHg 76%
    03:00 +14°C° 0 mm 1 mps 540 mmHg 78%
    04:00 +13°C° 0 mm 1 mps 540 mmHg 81%
    05:00 +13°C° 0 mm 1 mps 539 mmHg 83%
    06:00 +13°C° 0 mm 1 mps 540 mmHg 78%
    07:00 +14°C° 0 mm 2 mps 541 mmHg 73%
    08:00 +15°C° 0 mm 2 mps 541 mmHg 68%
    09:00 +16°C° 0 mm 2 mps 542 mmHg 58%
    10:00 +18°C° 0 mm 3 mps 543 mmHg 47%
    11:00 +20°C° 0 mm 3 mps 544 mmHg 36%
    12:00 +21°C° 0 mm 3 mps 544 mmHg 33%
    13:00 +22°C° 0 mm 4 mps 544 mmHg 29%
    14:00 +23°C° 0 mm 4 mps 543 mmHg 26%
    15:00 +22°C° 0 mm 5 mps 543 mmHg 33%
    16:00 +21°C° 0 mm 6 mps 542 mmHg 39%
    17:00 +20°C° 0 mm 7 mps 542 mmHg 46%
    18:00 +19°C° 0.1 mm 5 mps 542 mmHg 54%
    19:00 +18°C° 0.1 mm 4 mps 542 mmHg 62%
    20:00 +16°C° 0.1 mm 3 mps 542 mmHg 71%
    21:00 +16°C° 0 mm 3 mps 542 mmHg 73%
    22:00 +16°C° 0 mm 2 mps 542 mmHg 76%
    23:00 +15°C° 0 mm 2 mps 542 mmHg 78%

    Day after tomorrow, 21 September, Friday

    Time Temperature Precipitation Wind Pressure Humidity
    00:00 +15°C° 0 mm 2 mps 542 mmHg 79%
    01:00 +15°C° 0 mm 2 mps 541 mmHg 79%
    02:00 +14°C° 0 mm 2 mps 541 mmHg 80%
    03:00 +14°C° 0 mm 1 mps 540 mmHg 82%
    04:00 +14°C° 0 mm 1 mps 540 mmHg 83%
    05:00 +13°C° 0 mm 1 mps 540 mmHg 85%
    06:00 +14°C° 0 mm 1 mps 541 mmHg 80%
    07:00 +14°C° 0 mm 1 mps 541 mmHg 75%
    08:00 +15°C° 0 mm 1 mps 542 mmHg 70%
    09:00 +18°C° 0 mm 1 mps 543 mmHg 61%
    10:00 +18°C° 0 mm 2 mps 543 mmHg 52%
    11:00 +20°C° 0 mm 2 mps 544 mmHg 42%
    12:00 +21°C° 0 mm 3 mps 544 mmHg 39%
    13:00 +22°C° 0 mm 3 mps 543 mmHg 35%
    14:00 +23°C° 0 mm 4 mps 543 mmHg 32%
    15:00 +23°C° 0.1 mm 4 mps 543 mmHg 34%
    16:00 +22°C° 0.1 mm 5 mps 542 mmHg 36%
    17:00 +22°C° 0.1 mm 6 mps 542 mmHg 38%
    18:00 +21°C° 0.3 mm 5 mps 542 mmHg 44%
    19:00 +19°C° 0.3 mm 4 mps 542 mmHg 51%
    20:00 +18°C° 0.3 mm 3 mps 542 mmHg 57%
    21:00 +17°C° 1 mm 3 mps 542 mmHg 60%
    22:00 +17°C° 1 mm 2 mps 542 mmHg 64%
    23:00 +16°C° 1 mm 2 mps 542 mmHg 67%

    22 September, Saturday

    Time Temperature Precipitation Wind Pressure Humidity
    00:00 +16°C° 0.1 mm 2 mps 542 mmHg 70%
    01:00 +16°C° 0.1 mm 1 mps 541 mmHg 72%
    02:00 +15°C° 0.1 mm 1 mps 541 mmHg 75%
    03:00 +15°C° 0 mm 1 mps 540 mmHg 77%
    04:00 +15°C° 0 mm 1 mps 540 mmHg 79%
    05:00 +14°C° 0 mm 1 mps 540 mmHg 81%
    06:00 +15°C° 0 mm 1 mps 540 mmHg 78%
    07:00 +15°C° 0 mm 1 mps 541 mmHg 75%
    08:00 +15°C° 0 mm 2 mps 542 mmHg 73%
    09:00 +17°C° 0.2 mm 2 mps 542 mmHg 63%
    10:00 +19°C° 0.2 mm 3 mps 543 mmHg 52%
    11:00 +21°C° 0.2 mm 3 mps 544 mmHg 42%
    12:00 +22°C° 0.1 mm 3 mps 543 mmHg 38%
    13:00 +23°C° 0.1 mm 4 mps 543 mmHg 33%
    14:00 +25°C° 0.1 mm 4 mps 543 mmHg 28%
    15:00 +23°C° 0.2 mm 5 mps 542 mmHg 31%
    16:00 +23°C° 0.2 mm 6 mps 541 mmHg 33%
    17:00 +22°C° 0.2 mm 7 mps 541 mmHg 36%
    18:00 +21°C° 1.6 mm 5 mps 541 mmHg 41%
    19:00 +20°C° 1.6 mm 4 mps 541 mmHg 46%
    20:00 +19°C° 1.6 mm 2 mps 541 mmHg 51%
    21:00 +18°C° 0.1 mm 2 mps 541 mmHg 52%
    22:00 +18°C° 0.1 mm 2 mps 541 mmHg 53%
    23:00 +18°C° 0.1 mm 2 mps 542 mmHg 54%

    23 September, Sunday

    Time Temperature Precipitation Wind Pressure Humidity
    00:00 +18°C° 0 mm 1 mps 541 mmHg 56%
    01:00 +18°C° 0 mm 1 mps 540 mmHg 59%
    02:00 +16°C° 0 mm 1 mps 540 mmHg 62%
    03:00 +16°C° 0 mm 1 mps 540 mmHg 64%
    04:00 +16°C° 0 mm 1 mps 539 mmHg 66%
    05:00 +15°C° 0 mm 1 mps 539 mmHg 69%
    06:00 +16°C° 0 mm 1 mps 540 mmHg 64%
    07:00 +16°C° 0 mm 2 mps 540 mmHg 59%
    08:00 +17°C° 0 mm 2 mps 541 mmHg 54%
    09:00 +19°C° 0 mm 2 mps 542 mmHg 46%
    10:00 +20°C° 0 mm 3 mps 542 mmHg 39%
    11:00 +22°C° 0 mm 3 mps 543 mmHg 31%
    12:00 +23°C° 0 mm 4 mps 543 mmHg 29%
    13:00 +25°C° 0 mm 5 mps 543 mmHg 27%
    14:00 +26°C° 0 mm 5 mps 542 mmHg 24%
    15:00 +24°C° 0.1 mm 6 mps 542 mmHg 28%
    16:00 +23°C° 0.1 mm 7 mps 542 mmHg 32%
    17:00 +22°C° 0.1 mm 8 mps 541 mmHg 36%
    18:00 +21°C° 1.1 mm 6 mps 541 mmHg 40%
    19:00 +20°C° 1.1 mm 4 mps 541 mmHg 45%
    20:00 +18°C° 1.1 mm 2 mps 541 mmHg 49%
    21:00 +18°C° 0.2 mm 2 mps 541 mmHg 51%
    22:00 +18°C° 0.2 mm 2 mps 542 mmHg 53%
    23:00 +18°C° 0.2 mm 1 mps 542 mmHg 55%

    24 September, Monday

    Time Temperature Precipitation Wind Pressure Humidity
    00:00 +18°C° 0.3 mm 1 mps 541 mmHg 58%
    01:00 +16°C° 0.3 mm 1 mps 541 mmHg 61%
    02:00 +16°C° 0.3 mm 1 mps 540 mmHg 64%
    03:00 +15°C° 0.6 mm 1 mps 540 mmHg 65%
    04:00 +15°C° 0.6 mm 1 mps 540 mmHg 67%
    05:00 +15°C° 0.6 mm 1 mps 540 mmHg 68%
    06:00 +15°C° 0 mm 1 mps 540 mmHg 64%
    07:00 +16°C° 0 mm 2 mps 541 mmHg 60%
    08:00 +16°C° 0 mm 2 mps 542 mmHg 56%
    09:00 +18°C° 0.2 mm 2 mps 542 mmHg 49%
    10:00 +19°C° 0.2 mm 3 mps 543 mmHg 42%
    11:00 +21°C° 0.2 mm 3 mps 543 mmHg 36%
    12:00 +22°C° 0.1 mm 4 mps 543 mmHg 34%
    13:00 +22°C° 0.1 mm 4 mps 542 mmHg 32%
    14:00 +23°C° 0.1 mm 5 mps 542 mmHg 30%
    15:00 +22°C° 0.8 mm 5 mps 542 mmHg 35%
    16:00 +21°C° 0.8 mm 5 mps 541 mmHg 40%
    17:00 +19°C° 0.8 mm 5 mps 540 mmHg 45%
    18:00 +18°C° 1.9 mm 3 mps 540 mmHg 50%
    19:00 +18°C° 1.9 mm 2 mps 540 mmHg 55%
    20:00 +18°C° 1.9 mm 1 mps 540 mmHg 59%
    21:00 +16°C° 0.7 mm 1 mps 540 mmHg 61%
    22:00 +16°C° 0.7 mm 1 mps 540 mmHg 62%
    23:00 +16°C° 0.7 mm 2 mps 540 mmHg 63%
    Show more